Wind_Speed
17 16 15 14 15 15 17 16 16 16 15 14 14 13 13 12 12 13 13 9 10 7 7 4 4 2 2 6 8 6 4 5 1 5 6 8 4 2 2 5 3 4 1
14 14 14 13 12 13 15 16 16 17 16 17 17 16 16 15 15 16 15 12 11 8 10 6 4 2 2 3 6 5 5 2 6 8 7 5 4 1 3 4 4 3 3
12 12 11 11 12 13 14 15 16 18 18 18 18 19 17 15 14 15 14 14 13 10 9 8 4 3 2 2 3 3 2 2 2 8 5 4 3 1 3 2 2 2 5
5 7 10 12 13 14 15 16 18 18 19 19 19 21 20 16 15 15 14 13 13 12 9 7 5 4 4 2 1 0 2 3 4 8 5 6 3 2 2 3 1 1 5
9 8 5 8 10 12 11 13 16 15 17 17 18 21 20 18 17 16 14 13 12 12 9 7 6 7 7 6 2 2 3 3 4 6 5 3 5 3 2 4 4 5 7
7 7 8 8 12 13 13 9 14 16 13 15 16 16 19 19 18 17 17 12 12 12 10 9 8 9 8 7 4 4 3 4 4 3 11 3 4 3 3 5 9 7 4
8 7 4 5 11 14 18 18 22 22 19 15 15 15 15 16 18 18 16 13 10 12 10 11 11 10 9 8 6 5 5 7 9 4 6 4 5 4 3 3 6 5 3
12 9 9 5 12 16 18 19 20 18 19 16 14 15 10 12 8 7 9 10 2 14 9 11 12 15 13 11 9 6 8 9 8 7 8 7 5 3 3 4 6 2 4
13 9 7 9 10 14 16 15 18 15 15 11 9 6 3 10 13 11 12 13 2 7 7 9 13 15 17 15 10 9 9 9 11 11 8 6 6 8 5 2 3 5 3
13 13 6 8 12 13 14 15 16 18 13 12 9 7 6 12 19 23 24 11 7 7 3 8 15 16 20 17 11 11 10 11 13 12 9 7 6 7 8 4 1 5 4
13 14 12 10 12 13 13 15 13 12 10 9 12 13 10 14 17 18 18 16 10 20 28 21 21 22 22 19 13 9 10 13 14 12 11 9 6 4 4 5 6 4 7
11 10 11 10 12 13 15 16 15 6 7 7 7 11 5 6 9 13 14 11 9 19 19 18 22 25 25 21 14 13 16 14 10 10 8 9 7 6 6 4 5 5 7
9 9 10 11 11 11 13 15 16 10 10 14 11 7 5 4 8 5 9 4 7 13 15 21 23 27 28 23 15 17 16 9 8 9 9 7 6 6 6 7 5 8 8
7 8 8 9 10 11 12 14 14 14 12 12 7 9 9 11 10 10 13 8 8 19 18 20 22 29 27 19 19 19 11 10 8 7 9 10 10 8 6 6 7 8 8
7 8 9 10 10 12 11 16 15 10 12 10 9 9 10 11 14 13 9 7 14 17 19 21 23 26 24 20 20 19 14 12 10 9 10 11 11 10 8 6 7 7 8
11 11 10 11 11 11 12 13 15 14 13 9 7 7 8 13 15 11 6 8 14 21 21 23 24 26 25 23 21 19 18 15 13 12 11 11 10 11 10 10 8 7 9
11 12 12 9 9 10 11 11 14 17 16 13 8 8 10 11 14 12 9 9 16 22 15 20 21 24 24 22 22 21 20 18 16 15 14 12 10 9 11 11 11 9 9
10 9 11 12 11 11 11 11 10 11 14 10 7 7 7 9 8 8 10 11 17 20 12 17 17 19 21 22 22 22 21 20 20 17 20 15 12 12 11 10 12 11 11
10 9 13 13 12 12 11 10 9 8 9 11 8 7 7 7 6 4 9 8 15 17 7 11 16 19 21 22 19 20 21 20 21 22 19 15 14 13 12 11 10 11 12
11 10 11 12 13 13 11 10 9 6 5 9 9 9 8 5 0 2 3 5 8 10 8 6 7 11 16 22 23 23 24 25 25 27 18 16 15 13 11 11 12 12 13
11 11 14 12 12 13 12 10 10 9 8 4 8 10 8 3 2 2 4 5 6 7 8 6 5 6 7 10 17 25 24 25 26 28 22 17 16 18 14 13 12 13 13
13 13 12 12 12 11 12 13 10 9 8 5 6 9 5 1 1 1 2 3 4 4 5 6 8 6 6 8 12 15 19 21 26 27 21 20 22 23 19 14 12 13 13
13 14 14 14 13 13 10 10 10 8 6 5 3 5 5 1 1 1 1 2 2 3 3 6 7 8 10 10 8 11 15 21 27 30 27 25 21 22 21 19 15 13 13
13 12 11 12 11 12 11 10 8 7 4 3 2 1 1 1 2 3 3 3 3 3 3 3 4 6 8 10 12 13 11 13 17 25 29 27 25 23 18 20 20 15 14
13 11 10 11 12 11 10 8 6 5 4 1 3 2 2 2 4 5 5 5 5 4 4 3 3 5 7 9 11 15 16 16 20 21 25 27 27 23 22 22 23 20 19
14 13 12 12 11 11 9 7 5 3 3 4 3 7 5 4 7 8 8 8 7 6 4 1 1 3 6 8 11 13 15 18 19 22 23 24 25 25 26 20 20 21 23
Wind_Direction
213 217 224 226 228 233 240 245 248 249 246 249 254 262 266 263 263 256 259 267 258 262 264 263 272 286 310 317 322 326 321 295 21 106 123 162 190 234 311 335 336 302 140
222 220 224 225 230 239 249 255 256 258 257 254 254 249 254 254 252 253 256 259 258 248 257 245 257 257 298 330 324 345 20 339 89 125 155 179 218 191 334 336 338 9 9
224 222 232 238 236 241 248 255 258 260 261 258 256 258 253 252 246 246 247 253 253 247 245 248 246 224 263 308 348 334 45 67 132 127 153 190 162 193 321 309 332 23 23
192 224 246 253 256 258 263 264 265 265 267 268 265 261 258 250 244 241 239 242 249 242 229 222 223 202 199 175 16 227 96 129 111 126 130 168 155 113 351 345 271 53 12
94 88 47 321 294 279 268 275 276 272 272 269 268 266 264 258 251 247 247 245 248 244 213 195 200 179 183 175 247 256 166 164 147 133 122 146 153 145 353 357 330 19 336
85 60 55 18 328 305 282 281 288 277 264 262 249 249 256 255 254 247 243 249 253 240 218 183 182 172 171 164 163 189 161 149 131 147 136 181 134 152 74 2 32 3 337
62 28 355 8 312 286 290 278 276 270 274 270 264 248 248 258 257 243 241 231 263 247 223 191 168 162 148 140 125 121 146 146 132 121 114 112 144 88 77 116 86 56 17
77 66 337 316 295 293 282 276 281 280 285 279 268 250 227 229 246 219 148 146 130 273 249 208 182 161 168 155 140 141 124 116 115 118 127 125 120 98 112 118 121 33 343
36 55 5 309 301 287 283 287 281 270 273 273 230 230 195 229 242 238 172 153 196 347 278 228 189 171 177 163 155 154 135 129 135 133 127 136 142 150 149 195 154 130 49
12 352 20 330 295 295 294 294 286 266 267 251 243 242 258 256 246 234 223 194 155 118 250 278 228 183 176 163 167 163 151 152 139 128 115 101 87 114 91 39 33 90 1
351 348 346 334 320 315 311 314 303 266 274 251 242 249 270 262 242 239 223 207 212 224 237 228 222 204 177 166 170 183 166 157 146 137 132 131 123 121 102 69 35 29 56
357 343 331 336 331 334 336 330 327 276 268 256 234 237 282 291 234 219 227 279 228 195 203 206 207 205 180 172 167 186 166 151 157 145 146 142 138 136 125 95 64 67 84
339 333 336 335 342 350 350 341 334 335 281 274 270 251 262 181 130 170 240 244 220 206 229 209 204 199 179 171 180 175 154 175 169 156 144 139 134 145 131 124 100 112 92
344 333 330 328 347 347 355 356 345 343 330 317 306 294 259 266 288 283 300 310 155 181 186 191 194 187 178 179 177 183 186 182 184 158 147 141 144 148 151 154 145 141 132
0 355 344 337 350 349 352 348 351 338 327 315 326 312 291 279 283 298 293 269 181 178 177 171 168 175 183 185 188 194 198 184 184 160 154 152 150 155 150 159 160 158 145
3 5 349 334 335 338 340 338 347 335 318 321 329 318 305 293 276 279 271 221 200 184 164 166 177 182 190 193 195 197 201 189 186 171 164 163 162 160 160 159 167 179 161
352 349 343 334 331 327 333 337 335 341 316 298 314 336 339 297 271 253 243 216 202 191 183 188 190 191 195 198 200 199 199 193 186 183 165 170 167 167 171 165 165 176 173
343 334 334 334 329 321 323 330 335 339 317 282 279 311 336 339 333 252 219 194 185 193 200 192 194 195 197 204 203 199 199 189 187 183 172 176 167 165 192 178 164 171 175
344 343 337 326 321 320 315 321 331 343 346 325 313 286 325 350 33 104 161 189 187 197 184 194 203 206 206 208 208 202 194 182 186 181 181 173 173 180 183 185 173 171 169
336 336 340 323 318 318 319 317 321 330 352 337 316 310 311 310 237 95 116 158 173 181 180 177 193 206 217 216 209 204 193 187 188 183 181 184 182 185 187 189 174 173 178
332 326 329 325 320 315 311 316 318 321 323 352 313 312 315 313 332 60 76 94 114 126 132 137 170 182 187 197 205 205 200 192 197 187 193 194 186 185 193 205 180 180 180
329 321 321 319 314 312 313 309 311 314 316 319 312 310 306 294 286 38 91 103 114 137 154 161 150 151 176 191 197 196 195 197 196 191 194 193 190 190 187 200 205 186 178
334 328 324 318 315 314 315 309 307 310 310 307 332 340 331 324 192 146 85 107 130 147 156 173 170 169 177 181 189 200 199 200 201 199 195 198 194 192 194 199 193 182 183
355 346 332 323 320 320 315 315 310 311 326 330 24 29 16 92 115 123 124 120 119 134 157 154 170 194 194 196 188 186 198 201 205 211 210 206 197 187 193 194 195 198 206
6 360 353 343 337 329 322 318 320 327 316 41 70 81 36 85 102 110 107 101 101 101 100 129 180 206 213 211 209 212 212 207 202 203 212 212 206 190 189 189 200 209 215
23 8 5 3 360 353 344 342 345 17 13 64 99 113 112 110 105 97 92 84 76 67 55 49 235 236 234 227 222 220 223 220 211 209 210 209 195 195 196 190 197 211 230
Height
800 803 806 808 810 812 813 813 814 814 813 812 812 812 813 813 814 814 813 815 814 814 813 812 812 812 811 810 809 807 805 803 798 811 813 815 817 817 816 815 814 813 811
797 800 802 805 807 809 810 811 811 810 810 809 808 807 807 808 809 810 811 811 812 811 811 810 811 811 811 809 808 808 806 804 803 808 814 815 815 815 815 814 813 811 811
794 797 800 803 804 804 805 807 807 806 806 805 805 804 803 804 804 806 807 808 808 807 807 809 811 811 811 809 809 807 805 804 803 806 812 813 813 815 814 813 812 811 810
792 794 797 799 801 801 803 803 803 802 803 803 802 801 801 800 801 801 802 803 804 803 804 806 808 809 809 809 810 808 806 804 805 805 810 812 813 813 812 810 808 809 809
792 791 794 799 800 800 799 799 799 799 798 798 798 798 798 798 797 798 799 800 801 801 801 802 806 806 809 808 809 809 807 804 802 802 809 810 809 810 811 810 807 808 808
792 788 787 794 800 801 799 794 797 796 793 791 789 790 792 792 791 792 793 797 799 799 799 800 801 804 807 809 808 810 810 806 804 802 806 809 810 811 812 811 809 811 811
789 788 787 785 797 800 797 790 790 792 788 785 785 784 785 788 787 786 787 791 796 798 800 801 801 805 809 810 808 809 810 808 806 807 808 810 812 812 813 811 813 812 811
788 782 789 787 794 798 796 793 790 788 784 783 781 781 781 781 781 780 780 787 783 795 801 802 801 802 806 810 811 814 812 812 810 808 810 811 814 816 814 814 814 813 812
790 787 790 797 793 798 795 789 788 786 784 780 779 778 782 780 780 780 778 778 774 789 800 803 801 801 804 809 812 813 813 813 810 810 812 813 811 814 815 814 812 813 809
791 794 789 793 798 793 789 786 784 783 780 778 778 778 780 775 773 773 774 772 771 780 797 803 807 801 801 808 813 813 813 814 812 813 814 815 817 816 816 817 814 811 811
794 793 792 793 794 789 785 781 778 776 776 775 775 777 777 770 767 766 766 764 759 769 782 791 802 801 801 806 812 813 812 814 811 813 811 813 816 819 820 820 820 815 815
794 795 794 793 790 785 780 777 773 769 772 772 773 774 772 766 765 767 767 764 766 770 775 783 794 799 800 804 810 811 813 813 814 810 813 812 814 815 819 821 822 822 820
797 795 792 790 787 782 778 777 775 767 768 767 766 767 766 765 765 764 768 764 762 766 773 782 788 796 799 804 807 810 810 812 812 810 810 814 817 819 819 822 823 824 825
796 794 791 789 785 782 778 775 775 772 769 765 763 766 764 763 762 760 761 762 763 768 773 779 784 794 800 802 805 809 809 809 811 810 810 811 814 818 820 821 823 824 825
795 793 789 785 781 780 778 777 775 774 773 770 769 768 766 762 761 759 760 761 763 769 773 778 783 793 798 800 803 806 807 807 809 809 811 813 812 815 818 822 823 825 824
792 789 788 785 782 782 779 777 773 773 771 769 769 769 765 762 760 757 757 759 762 767 772 777 782 786 789 792 797 801 802 804 806 807 809 812 813 813 817 819 822 824 825
793 791 789 787 786 783 781 779 774 770 769 768 768 767 765 765 759 757 756 759 761 764 769 773 776 778 782 785 789 792 797 798 803 805 805 810 812 814 818 818 818 822 826
796 793 791 787 785 783 781 778 775 771 769 769 767 767 766 763 757 756 755 758 761 764 766 768 771 773 775 778 781 786 789 793 797 802 804 806 810 813 817 817 817 819 823
795 794 792 789 787 785 780 778 774 771 770 769 768 766 765 764 761 759 759 758 760 762 764 766 768 770 773 775 776 779 783 788 794 798 801 803 807 810 812 815 817 817 820
794 793 792 789 786 783 781 779 776 773 769 768 769 767 765 764 762 763 761 760 761 762 763 764 766 767 770 772 774 777 780 785 789 794 800 803 805 809 811 813 815 819 819
793 791 789 787 785 783 780 778 775 771 768 765 766 765 764 762 762 762 760 759 758 758 759 761 763 765 766 767 773 775 777 782 788 789 796 800 804 807 811 813 812 816 818
793 790 789 787 785 783 781 777 774 771 768 766 764 764 762 760 760 761 760 759 757 758 759 760 759 762 765 768 770 772 775 779 782 787 792 797 800 803 808 812 812 813 816
793 790 788 786 784 781 778 777 774 772 769 767 763 762 762 761 761 760 760 759 759 759 759 760 759 761 763 766 768 770 772 774 777 781 786 791 796 801 806 809 811 812 815
794 792 789 787 784 780 777 775 773 771 768 766 763 762 764 763 761 760 760 759 759 758 759 757 757 760 761 763 763 767 770 772 775 779 782 787 792 797 802 806 810 812 815
796 793 789 786 783 780 777 775 772 770 768 765 765 763 763 763 762 762 761 760 760 759 758 757 757 758 760 760 761 763 765 768 772 776 779 782 786 792 797 800 805 808 810
797 794 790 787 785 782 779 776 774 770 769 767 767 763 765 766 765 763 762 761 759 759 760 760 758 758 757 757 757 758 761 764 768 771 774 778 783 788 792 796 801 804 805